EDW385R LICA-LSZH

Flight info

Callsign EDW385R
Flight time N/A
Altitude 34000
Route ARBUM DCT EVINO DCT NIKMA DCT CANNE Z651 KELIP
Aircraft A320/M-SDE2E3FGHIJ1RWXY/LB1

Departure

Time 2026-04-24 19:19
Airport Lamezia Terme Sant'Eufemia International Airport (LICA)

Arrival

Time N/A
Airport Zürich Airport (LSZH)
Time Latitude Longitude Altitude Speed Heading
2026-04-24 18:57 38.90870 16.24534 32 ft 0 kts 52°
2026-04-24 19:12 38.90866 16.24547 32 ft 2 kts 136°
2026-04-24 19:13 38.90858 16.24549 32 ft 1 kts 172°
2026-04-24 19:13 38.90846 16.24544 32 ft 3 kts 198°
2026-04-24 19:13 38.90822 16.24539 32 ft 5 kts 179°
2026-04-24 19:13 38.90788 16.24560 32 ft 7 kts 148°
2026-04-24 19:14 38.90747 16.24597 32 ft 8 kts 143°
2026-04-24 19:14 38.90713 16.24660 32 ft 9 kts 107°
2026-04-24 19:14 38.90704 16.24739 32 ft 8 kts 98°
2026-04-24 19:14 38.90696 16.24808 32 ft 8 kts 99°
2026-04-24 19:15 38.90685 16.24905 32 ft 14 kts 98°
2026-04-24 19:15 38.90670 16.25030 33 ft 13 kts 98°
2026-04-24 19:15 38.90658 16.25136 33 ft 11 kts 99°
2026-04-24 19:15 38.90648 16.25225 33 ft 10 kts 98°
2026-04-24 19:16 38.90621 16.25454 33 ft 15 kts 98°
2026-04-24 19:16 38.90606 16.25584 31 ft 14 kts 98°
2026-04-24 19:16 38.90593 16.25701 30 ft 13 kts 98°
2026-04-24 19:17 38.90581 16.25806 30 ft 11 kts 98°
2026-04-24 19:17 38.90569 16.25907 33 ft 13 kts 99°
2026-04-24 19:17 38.90554 16.26032 34 ft 14 kts 98°
2026-04-24 19:17 38.90533 16.26152 31 ft 13 kts 119°
2026-04-24 19:18 38.90456 16.26217 31 ft 13 kts 152°
2026-04-24 19:18 38.90384 16.26267 33 ft 10 kts 152°
2026-04-24 19:18 38.90330 16.26267 34 ft 7 kts 210°
2026-04-24 19:18 38.90314 16.26183 34 ft 14 kts 280°
2026-04-24 19:19 38.90349 16.25868 31 ft 69 kts 277°
2026-04-24 19:19 38.90452 16.24977 36 ft 130 kts 278°
2026-04-24 19:19 38.90614 16.23631 183 ft 164 kts 277°
2026-04-24 19:19 38.90801 16.22216 922 ft 160 kts 279°
2026-04-24 19:20 38.90990 16.20804 1555 ft 164 kts 279°
2026-04-24 19:20 38.91174 16.19291 1947 ft 183 kts 279°
2026-04-24 19:20 38.91362 16.17609 2366 ft 199 kts 279°
2026-04-24 19:20 38.91555 16.15755 2781 ft 220 kts 279°
2026-04-24 19:21 38.91771 16.13731 3335 ft 237 kts 279°
2026-04-24 19:21 38.92219 16.11645 3966 ft 249 kts 298°
2026-04-24 19:21 38.93245 16.09813 4681 ft 258 kts 312°
2026-04-24 19:21 38.94448 16.08075 5519 ft 262 kts 314°
2026-04-24 19:22 38.95268 16.06927 6101 ft 264 kts 315°
2026-04-24 19:22 38.96938 16.04564 7196 ft 270 kts 315°
2026-04-24 19:22 38.98188 16.02746 7998 ft 273 kts 314°
2026-04-24 19:22 38.99443 16.00888 8795 ft 278 kts 313°
2026-04-24 19:23 39.00710 15.98984 9595 ft 282 kts 312°
2026-04-24 19:23 39.01988 15.97055 10358 ft 285 kts 314°
2026-04-24 19:23 39.03474 15.95226 10634 ft 307 kts 323°
2026-04-24 19:23 39.05304 15.93639 10823 ft 329 kts 332°
2026-04-24 19:24 39.07439 15.92330 10958 ft 351 kts 337°
2026-04-24 19:24 39.09733 15.91009 11082 ft 372 kts 336°
2026-04-24 19:24 39.12134 15.89600 11393 ft 384 kts 336°
2026-04-24 19:24 39.14575 15.88152 11956 ft 388 kts 336°
2026-04-24 19:25 39.16962 15.86730 12536 ft 391 kts 336°
2026-04-24 19:25 39.19442 15.85251 13118 ft 394 kts 336°
2026-04-24 19:25 39.21939 15.83763 13730 ft 396 kts 336°
2026-04-24 19:25 39.24451 15.82271 14276 ft 399 kts 336°
2026-04-24 19:26 39.26960 15.80715 14760 ft 402 kts 332°
2026-04-24 19:26 39.29293 15.78685 15221 ft 408 kts 322°
2026-04-24 19:26 39.31465 15.76307 15680 ft 411 kts 321°
2026-04-24 19:26 39.33650 15.73897 16132 ft 415 kts 321°
2026-04-24 19:27 39.35850 15.71469 16584 ft 418 kts 321°
2026-04-24 19:27 39.38071 15.69021 17028 ft 421 kts 321°
2026-04-24 19:27 39.40309 15.66552 17466 ft 425 kts 321°
2026-04-24 19:27 39.42566 15.64062 17886 ft 428 kts 321°
2026-04-24 19:28 39.44814 15.61583 18299 ft 432 kts 321°
2026-04-24 19:28 39.47107 15.59049 18674 ft 435 kts 321°
2026-04-24 19:28 39.49415 15.56498 19030 ft 438 kts 321°
2026-04-24 19:28 39.51740 15.53924 19371 ft 441 kts 321°
2026-04-24 19:29 39.56437 15.48717 20046 ft 447 kts 322°
2026-04-24 19:29 39.58807 15.46089 20381 ft 450 kts 322°
2026-04-24 19:29 39.61190 15.43434 20707 ft 453 kts 322°
2026-04-24 19:30 39.63587 15.40759 21020 ft 456 kts 322°
2026-04-24 19:30 39.65998 15.38067 21336 ft 459 kts 322°
2026-04-24 19:30 39.68424 15.35359 21641 ft 462 kts 322°
2026-04-24 19:30 39.70874 15.32647 21941 ft 464 kts 324°
2026-04-24 19:31 39.73498 15.30215 22224 ft 464 kts 329°
2026-04-24 19:31 39.76181 15.27862 22503 ft 467 kts 328°
2026-04-24 19:31 39.78873 15.25494 22833 ft 468 kts 328°
2026-04-24 19:31 39.81572 15.23114 23142 ft 470 kts 328°
2026-04-24 19:32 39.84283 15.20717 23425 ft 472 kts 328°
2026-04-24 19:32 39.87005 15.18308 23683 ft 475 kts 328°
2026-04-24 19:32 39.89744 15.15890 23921 ft 477 kts 328°
2026-04-24 19:32 39.92489 15.13459 24195 ft 478 kts 328°
2026-04-24 19:33 39.95242 15.11020 24452 ft 479 kts 328°
2026-04-24 19:33 39.98001 15.08572 24758 ft 480 kts 328°
2026-04-24 19:33 40.00754 15.06122 25100 ft 479 kts 328°
2026-04-24 19:33 40.03504 15.03669 25452 ft 478 kts 328°
2026-04-24 19:34 40.06247 15.01218 25813 ft 478 kts 328°
2026-04-24 19:34 40.08985 14.98771 26176 ft 477 kts 328°
2026-04-24 19:34 40.11723 14.96331 26546 ft 476 kts 329°
2026-04-24 19:34 40.14458 14.93898 26923 ft 475 kts 329°
2026-04-24 19:35 40.17187 14.91466 27281 ft 474 kts 328°
2026-04-24 19:35 40.19909 14.89034 27637 ft 474 kts 328°
2026-04-24 19:35 40.22632 14.86598 28006 ft 474 kts 328°
2026-04-24 19:35 40.25348 14.84165 28389 ft 473 kts 328°
2026-04-24 19:36 40.28058 14.81736 28771 ft 472 kts 328°
2026-04-24 19:36 40.30770 14.79304 29155 ft 472 kts 328°
2026-04-24 19:36 40.33473 14.76877 29540 ft 471 kts 328°
2026-04-24 19:36 40.36172 14.74449 29926 ft 470 kts 328°
2026-04-24 19:37 40.38863 14.72023 30286 ft 469 kts 328°
2026-04-24 19:37 40.41550 14.69596 30601 ft 469 kts 328°
2026-04-24 19:37 40.44236 14.67169 30905 ft 468 kts 328°
2026-04-24 19:37 40.46919 14.64747 31234 ft 467 kts 328°
2026-04-24 19:38 40.49596 14.62330 31580 ft 466 kts 328°
2026-04-24 19:38 40.52263 14.59920 31932 ft 465 kts 328°
2026-04-24 19:38 40.54923 14.57512 32287 ft 463 kts 328°
2026-04-24 19:38 40.57570 14.55111 32649 ft 462 kts 328°
2026-04-24 19:39 40.60208 14.52715 32995 ft 460 kts 328°
2026-04-24 19:39 40.62840 14.50323 33345 ft 459 kts 328°
2026-04-24 19:39 40.65465 14.47938 33690 ft 457 kts 328°
2026-04-24 19:39 40.68078 14.45562 34018 ft 457 kts 328°
2026-04-24 19:40 40.70662 14.43211 34099 ft 459 kts 328°
2026-04-24 19:40 40.75612 14.38702 34109 ft 463 kts 328°
2026-04-24 19:41 40.80910 14.33855 34111 ft 464 kts 328°
2026-04-24 19:41 40.86211 14.28996 34111 ft 464 kts 328°
2026-04-24 19:42 40.91512 14.24132 34105 ft 464 kts 328°
2026-04-24 19:42 40.96707 14.19355 34106 ft 464 kts 328°
2026-04-24 19:43 41.01785 14.14668 34078 ft 464 kts 328°
2026-04-24 19:43 41.07034 14.09832 34084 ft 464 kts 328°
2026-04-24 19:44 41.12332 14.04939 34104 ft 464 kts 328°
2026-04-24 19:44 41.17389 14.00247 34098 ft 464 kts 328°
2026-04-24 19:45 41.22678 13.95328 34108 ft 464 kts 328°
2026-04-24 19:45 41.27300 13.91033 34114 ft 464 kts 328°
2026-04-24 19:46 41.32587 13.86100 34119 ft 464 kts 328°
2026-04-24 19:46 41.37531 13.81486 34100 ft 464 kts 328°
2026-04-24 19:47 41.42644 13.76698 34098 ft 464 kts 328°
2026-04-24 19:47 41.47860 13.71805 34114 ft 465 kts 328°
2026-04-24 19:48 41.53138 13.66845 34106 ft 465 kts 328°
2026-04-24 19:48 41.61007 13.59431 34097 ft 465 kts 328°
2026-04-24 19:49 41.71566 13.49456 34089 ft 465 kts 328°
2026-04-24 19:50 41.81984 13.39564 34097 ft 465 kts 328°
2026-04-24 19:51 41.89799 13.32118 34105 ft 465 kts 328°
2026-04-24 19:52 41.97506 13.24756 34132 ft 465 kts 328°
2026-04-24 19:52 42.02773 13.19719 34136 ft 465 kts 328°
2026-04-24 19:53 42.07947 13.14756 34137 ft 465 kts 328°
2026-04-24 19:54 42.15679 13.07316 34127 ft 465 kts 327°
2026-04-24 19:54 42.19980 13.03160 34126 ft 465 kts 327°
2026-04-24 19:55 42.24296 12.98989 34129 ft 465 kts 327°
2026-04-24 19:55 42.30035 12.93450 34119 ft 465 kts 328°
2026-04-24 19:56 42.35289 12.88355 34115 ft 465 kts 328°
2026-04-24 19:56 42.40488 12.83289 34117 ft 465 kts 327°
2026-04-24 19:57 42.45732 12.78186 34120 ft 465 kts 328°
2026-04-24 19:57 42.50751 12.73294 34100 ft 465 kts 328°
2026-04-24 19:58 42.55999 12.68156 34097 ft 466 kts 328°
2026-04-24 19:58 42.61252 12.62997 34100 ft 466 kts 327°
2026-04-24 19:59 42.66491 12.57839 34100 ft 467 kts 327°
2026-04-24 19:59 42.71725 12.52684 34105 ft 467 kts 328°
2026-04-24 20:00 42.76985 12.47497 34093 ft 467 kts 327°
2026-04-24 20:00 42.82139 12.42408 34097 ft 467 kts 327°
2026-04-24 20:01 42.87400 12.37193 34094 ft 468 kts 327°
2026-04-24 20:01 42.92590 12.32035 34099 ft 468 kts 327°
2026-04-24 20:02 42.97789 12.26860 34094 ft 468 kts 327°
2026-04-24 20:02 43.02983 12.21684 34099 ft 468 kts 327°
2026-04-24 20:03 43.08240 12.16428 34109 ft 468 kts 327°
2026-04-24 20:03 43.13505 12.11186 34107 ft 468 kts 328°
2026-04-24 20:04 43.18641 12.06069 34109 ft 468 kts 327°
2026-04-24 20:04 43.23811 12.00904 34107 ft 468 kts 327°
2026-04-24 20:05 43.29064 11.95634 34123 ft 468 kts 327°
2026-04-24 20:05 43.34305 11.90369 34126 ft 468 kts 327°
2026-04-24 20:06 43.39440 11.85202 34137 ft 467 kts 327°
2026-04-24 20:06 43.44633 11.79966 34127 ft 467 kts 327°
2026-04-24 20:07 43.48934 11.75614 34132 ft 467 kts 327°
2026-04-24 20:07 43.55076 11.69376 34134 ft 466 kts 327°
2026-04-24 20:08 43.60260 11.64109 34122 ft 466 kts 327°
2026-04-24 20:08 43.65443 11.58842 34116 ft 466 kts 327°
2026-04-24 20:09 43.70514 11.53670 34125 ft 465 kts 326°
2026-04-24 20:09 43.75717 11.48349 34127 ft 465 kts 326°
2026-04-24 20:10 43.80728 11.43216 34129 ft 465 kts 326°
2026-04-24 20:10 43.85900 11.37913 34120 ft 465 kts 326°
2026-04-24 20:11 43.90990 11.32666 34148 ft 465 kts 326°
2026-04-24 20:11 43.96180 11.27307 34152 ft 465 kts 326°
2026-04-24 20:12 44.01272 11.22050 34146 ft 465 kts 326°
2026-04-24 20:12 44.06219 11.16931 34154 ft 465 kts 326°
2026-04-24 20:13 44.11378 11.11567 34165 ft 464 kts 326°
2026-04-24 20:13 44.16554 11.06184 34190 ft 464 kts 326°
2026-04-24 20:14 44.21595 11.00934 34208 ft 464 kts 326°
2026-04-24 20:14 44.26410 10.95892 34206 ft 464 kts 326°
2026-04-24 20:15 44.31546 10.90501 34198 ft 464 kts 326°
2026-04-24 20:15 44.36644 10.85156 34188 ft 464 kts 326°
2026-04-24 20:16 44.41796 10.79743 34187 ft 464 kts 326°
2026-04-24 20:16 44.46947 10.74313 34185 ft 464 kts 326°
2026-04-24 20:17 44.52095 10.68864 34159 ft 464 kts 325°
2026-04-24 20:17 44.59723 10.60778 34142 ft 464 kts 325°
2026-04-24 20:18 44.64869 10.55321 34129 ft 464 kts 325°
2026-04-24 20:18 44.70015 10.49844 34119 ft 464 kts 325°
2026-04-24 20:19 44.75155 10.44358 34106 ft 464 kts 325°
2026-04-24 20:19 44.79633 10.39560 34094 ft 464 kts 325°
2026-04-24 20:20 44.84943 10.33878 34075 ft 464 kts 325°
2026-04-24 20:20 44.89979 10.28478 34041 ft 465 kts 324°
2026-04-24 20:21 44.95098 10.22958 34048 ft 465 kts 324°
2026-04-24 20:21 45.00048 10.17610 34043 ft 465 kts 324°
2026-04-24 20:22 45.05083 10.12158 34017 ft 465 kts 324°
2026-04-24 20:22 45.10114 10.06690 34012 ft 465 kts 324°
2026-04-24 20:23 45.15144 10.01218 33999 ft 464 kts 323°
2026-04-24 20:23 45.20135 9.95767 33997 ft 464 kts 323°
2026-04-24 20:24 45.25254 9.90180 34000 ft 464 kts 324°
2026-04-24 20:24 45.29994 9.85013 34000 ft 464 kts 323°
2026-04-24 20:25 45.35108 9.79414 34036 ft 464 kts 323°
2026-04-24 20:25 45.40205 9.73808 34064 ft 464 kts 323°
2026-04-24 20:26 45.44761 9.68783 34093 ft 464 kts 323°
2026-04-24 20:26 45.49752 9.63258 34119 ft 465 kts 323°
2026-04-24 20:27 45.54860 9.57601 34129 ft 465 kts 323°
2026-04-24 20:27 45.59842 9.52076 34128 ft 465 kts 322°
2026-04-24 20:28 45.64628 9.46762 34129 ft 465 kts 323°
2026-04-24 20:28 45.69609 9.41218 34102 ft 465 kts 322°
2026-04-24 20:29 45.74734 9.35482 34028 ft 465 kts 322°
2026-04-24 20:29 45.79580 9.30054 34037 ft 465 kts 322°
2026-04-24 20:30 45.83493 9.25670 34041 ft 465 kts 322°
2026-04-24 20:30 45.89054 9.19417 34047 ft 465 kts 322°
2026-04-24 20:31 45.93314 9.14614 34054 ft 465 kts 322°
2026-04-24 20:31 45.98158 9.09147 34058 ft 465 kts 321°
2026-04-24 20:32 46.03332 9.03282 34067 ft 465 kts 321°
2026-04-24 20:32 46.08293 8.97644 34067 ft 465 kts 321°
2026-04-24 20:33 46.13188 8.92169 34060 ft 465 kts 326°
2026-04-24 20:33 46.18474 8.88473 34059 ft 466 kts 342°
2026-04-24 20:34 46.24835 8.86833 33266 ft 466 kts 353°
2026-04-24 20:34 46.28052 8.86340 32427 ft 467 kts 354°
2026-04-24 20:34 46.31285 8.85866 31608 ft 467 kts 354°
2026-04-24 20:35 46.34035 8.85469 30928 ft 467 kts 355°
2026-04-24 20:35 46.37267 8.85002 30149 ft 467 kts 355°
2026-04-24 20:35 46.40496 8.84531 29264 ft 466 kts 354°
2026-04-24 20:35 46.43716 8.84058 28470 ft 463 kts 354°
2026-04-24 20:36 46.46910 8.83582 27753 ft 459 kts 354°
2026-04-24 20:36 46.50068 8.83104 27082 ft 454 kts 354°
2026-04-24 20:36 46.52861 8.82675 26485 ft 450 kts 354°
2026-04-24 20:36 46.55963 8.82199 25838 ft 446 kts 355°
2026-04-24 20:37 46.59033 8.81761 25199 ft 441 kts 358°
2026-04-24 20:37 46.62075 8.81965 24602 ft 435 kts 10°
2026-04-24 20:37 46.65016 8.82811 24028 ft 424 kts 12°
2026-04-24 20:37 46.67847 8.83661 23426 ft 407 kts 12°
2026-04-24 20:38 46.70542 8.84466 22788 ft 391 kts 12°
2026-04-24 20:38 46.73160 8.85244 22207 ft 378 kts 12°
2026-04-24 20:38 46.75693 8.85998 21643 ft 365 kts 12°
2026-04-24 20:38 46.78144 8.86735 21108 ft 354 kts 12°
2026-04-24 20:39 46.80517 8.87452 20609 ft 343 kts 12°
2026-04-24 20:39 46.82785 8.88140 20130 ft 334 kts 12°
2026-04-24 20:39 46.85027 8.88818 19669 ft 325 kts 12°
2026-04-24 20:39 46.87078 8.89437 19246 ft 317 kts 12°
2026-04-24 20:40 46.89212 8.90084 18824 ft 310 kts 12°
2026-04-24 20:40 46.91297 8.90716 18405 ft 303 kts 12°
2026-04-24 20:40 46.93338 8.91334 17940 ft 296 kts 12°
2026-04-24 20:40 46.95336 8.91940 17487 ft 290 kts 12°
2026-04-24 20:41 46.97297 8.92538 17057 ft 285 kts 12°
2026-04-24 20:41 46.98579 8.92929 16775 ft 283 kts 12°
2026-04-24 20:41 47.00500 8.93515 16361 ft 281 kts 12°
2026-04-24 20:41 47.03052 8.94296 15822 ft 286 kts 12°
2026-04-24 20:42 47.04990 8.94886 15418 ft 289 kts 11°
2026-04-24 20:42 47.06968 8.95487 15011 ft 292 kts 11°
2026-04-24 20:42 47.08974 8.96096 14602 ft 296 kts 11°
2026-04-24 20:42 47.10340 8.96509 14329 ft 298 kts 11°
2026-04-24 20:43 47.12374 8.96769 14029 ft 296 kts 352°
2026-04-24 20:43 47.14299 8.95780 13698 ft 295 kts 327°
2026-04-24 20:43 47.15740 8.93669 13359 ft 294 kts 304°
2026-04-24 20:43 47.16815 8.91116 13027 ft 294 kts 301°
2026-04-24 20:44 47.17840 8.88522 12693 ft 293 kts 300°
2026-04-24 20:44 47.18853 8.85941 12414 ft 290 kts 300°
2026-04-24 20:44 47.19851 8.83388 12158 ft 286 kts 300°
2026-04-24 20:44 47.20833 8.80877 11909 ft 282 kts 300°
2026-04-24 20:45 47.21800 8.78399 11660 ft 278 kts 300°
2026-04-24 20:45 47.22748 8.75969 11424 ft 274 kts 300°
2026-04-24 20:45 47.23674 8.73595 11228 ft 268 kts 300°
2026-04-24 20:45 47.24352 8.71114 11153 ft 258 kts 277°
2026-04-24 20:46 47.24156 8.68528 11158 ft 257 kts 248°
2026-04-24 20:46 47.23114 8.66415 11158 ft 259 kts 218°
2026-04-24 20:46 47.21489 8.65213 11159 ft 262 kts 200°
2026-04-24 20:46 47.19732 8.64463 11157 ft 263 kts 192°
2026-04-24 20:47 47.17938 8.64290 11154 ft 264 kts 170°
2026-04-24 20:47 47.16280 8.65325 11152 ft 266 kts 141°
2026-04-24 20:47 47.15142 8.67429 11152 ft 266 kts 112°
2026-04-24 20:47 47.14829 8.70073 11152 ft 265 kts 82°
2026-04-24 20:48 47.15431 8.72625 11150 ft 262 kts 52°
2026-04-24 20:48 47.16737 8.74391 11016 ft 260 kts 28°
2026-04-24 20:48 47.18333 8.75613 10775 ft 258 kts 24°
2026-04-24 20:48 47.19957 8.76740 10536 ft 258 kts 23°
2026-04-24 20:49 47.21579 8.77851 10303 ft 257 kts 23°
2026-04-24 20:49 47.23198 8.78956 10070 ft 256 kts 23°
2026-04-24 20:49 47.24757 8.80019 9817 ft 255 kts 23°
2026-04-24 20:49 47.26367 8.81116 9562 ft 254 kts 23°
2026-04-24 20:50 47.27969 8.82207 9308 ft 253 kts 23°
2026-04-24 20:50 47.29540 8.83278 9059 ft 252 kts 23°
2026-04-24 20:50 47.31129 8.84361 8807 ft 251 kts 23°
2026-04-24 20:50 47.32711 8.85439 8554 ft 250 kts 24°
2026-04-24 20:51 47.34287 8.86513 8315 ft 249 kts 24°
2026-04-24 20:51 47.35839 8.87571 8076 ft 247 kts 24°
2026-04-24 20:51 47.37380 8.88623 7831 ft 241 kts 24°
2026-04-24 20:51 47.38752 8.89560 7633 ft 238 kts 24°
2026-04-24 20:52 47.40247 8.90581 7403 ft 235 kts 24°
2026-04-24 20:52 47.41735 8.91550 7171 ft 232 kts 17°
2026-04-24 20:52 47.43300 8.91621 7038 ft 224 kts 343°
2026-04-24 20:52 47.44572 8.90422 6998 ft 216 kts 310°
2026-04-24 20:53 47.45358 8.88629 7018 ft 204 kts 291°
2026-04-24 20:53 47.45480 8.86574 6939 ft 204 kts 260°